Location: Br�deres
(49.8732°N, 11.7429°E)
Time: 00:54:24
(UTC+00:00)

Daily predictions for brighter satellites

Satellite Brightness Start Highest point End
(mag) Time Altitude Azimuth Time Altitude Azimuth Time Altitude Azimuth
CENTAUR R/B 4.4 02:29:13 29° NNE 02:29:13 29° NNE 02:35:12 10° ENE
Cosmos 2227 Rocket 4.3 02:52:36 21° ESE 02:52:36 21° ESE 02:54:37 10° ESE
Lacrosse 5 rocket 3.6 03:35:14 26° ENE 03:35:14 26° ENE 03:37:15 10° ENE
USA 229 DEB 4.3 03:43:52 44° N 03:43:52 44° N 03:49:25 10° NE
USA 229 4.3 03:43:58 44° N 03:43:58 44° N 03:49:30 10° NE
NOSS 3-1 (A) 4.0 03:49:58 49° N 03:49:58 49° N 03:55:23 10° NE
Cosmos 2369 Rocket 4.4 03:52:45 13° N 03:52:45 13° N 03:53:48 10° N
Cosmos 1697 Rocket 4.4 03:47:34 10° SSE 03:52:23 30° ESE 03:57:13 10° NE
ATLAS 3B R/B 3.9 03:50:54 27° N 03:52:51 31° NNE 03:58:48 10° E
Okean O Rocket 4.5 03:50:48 10° NE 03:53:43 17° E 03:56:38 10° SE
NOSS 3-2 (A) 4.4 03:55:57 38° NNW 03:58:47 58° NE 04:06:51 10° ESE
USA 215 3.2 03:57:26 10° SE 04:03:53 61° SW 04:03:57 61° SW
Cosmos 2074 Rocket 3.8 04:00:36 10° N 04:06:54 87° W 04:13:09 10° S
Cosmos 2082 3.7 04:07:05 69° N 04:07:45 81° ENE 04:13:27 10° SSE
CZ-2C R/B 4.2 04:09:59 10° N 04:11:37 21° N 04:11:37 21° N
Meteor 2-15 4.3 04:19:45 63° W 04:19:59 64° WNW 04:26:08 10° N
CENTAUR R/B 3.7 04:16:25 26° NNW 04:20:44 51° NE 04:29:02 10° ESE
Cosmos 2297 Rocket 2.9 04:23:30 38° SSW 04:23:30 38° SSW 04:27:19 10° S
Cosmos 1470 3.4 04:19:44 10° S 04:23:38 56° E 04:27:33 10° NNE
APEX 4.3 04:27:03 37° NNE 04:27:03 37° NNE 04:29:46 10° NNE
STARLINK-29 4.4 04:30:23 37° NE 04:30:23 37° NE 04:32:46 10° ENE
STARLINK-52 4.4 04:30:30 38° NE 04:30:30 38° NE 04:32:52 10° ENE
Cosmos 2227 Rocket 2.7 04:34:29 40° SW 04:34:29 40° SW 04:38:49 10° S
USA 238 DEB 3.8 04:29:55 32° NW 04:33:35 81° NE 04:41:00 10° SE
USA 238 3.8 04:30:01 32° NW 04:33:41 81° NE 04:41:06 10° SE
ALOS 2.5 04:29:19 10° NNE 04:34:00 68° ESE 04:38:39 10° S
EXPRESS MD2 4.2 04:36:29 32° SE 04:36:29 32° SE 04:38:20 10° E
ADEOS Rocket 3.8 04:32:00 10° SE 04:37:10 44° ENE 04:42:29 10° N
Cosmos 2341 Rocket 4.4 04:35:03 10° N 04:41:19 65° ENE 04:47:30 10° SSE
COSMO-SKYMED 1 3.1 04:38:03 10° S 04:41:17 44° SSW 04:41:17 44° SSW
Cosmos 2263 Rocket 3.3 04:39:12 14° NNW 04:43:42 40° NE 04:49:00 10° ESE
Cosmos 2278 4.2 04:45:21 10° SSW 04:50:58 62° ESE 04:56:38 10° NE
SL-4 R/B 1.5 04:51:23 85° SW 04:51:25 86° SSW 04:54:53 10° ESE
NOSS 2-2 (D) 4.4 04:50:10 11° SSW 04:53:26 41° ESE 04:57:17 10° NE
STARLINK-43 3.3 04:54:31 62° SW 04:55:04 78° SSE 04:58:47 10° ENE
BREEZE M DEB (TANK) 4.4 04:46:47 26° W 04:57:39 88° S 05:02:46 10° E
Cosmos 1656 3.6 04:55:44 29° WSW 04:58:23 57° WNW 05:03:49 10° NNE
Cosmos 2369 3.7 04:52:39 10° SSW 04:58:24 89° WNW 05:04:11 10° NNE
NOSS 7 (D) 4.4 04:58:49 57° NNE 04:59:02 59° NE 05:02:13 10° SE
PAYLOAD B 4.3 04:55:27 10° NNE 05:01:06 85° ESE 05:06:43 10° SSW
Nadezhda 1 Rocket 3.9 04:57:09 10° SSW 05:03:09 64° WNW 05:09:13 10° N
NOSS 8 (E) 4.0 05:03:00 65° SW 05:03:25 89° ESE 05:06:32 10° NE
STARLINK-80 3.9 05:01:50 29° SW 05:03:30 55° SSE 05:07:13 10° ENE
Cosmos 1538 Rocket 4.2 04:58:41 10° SSW 05:04:01 74° ESE 05:09:20 10° NNE
Abrixas rocket 2.0 05:05:22 65° SSW 05:05:30 67° S 05:08:31 10° E
MOS 1-B 4.2 05:02:14 10° NNE 05:08:01 73° WNW 05:13:47 10° SSW
Orbus 7S? 3.2 05:07:30 46° NW 05:08:26 89° NE 05:14:02 10° SE
CZ-3 R/B 4.2 04:57:28 10° WSW 05:08:31 20° SSW 05:13:50 10° SSE
METEOR-M 4.1 05:05:32 10° N 05:10:52 66° WNW 05:16:09 10° SSW
Meteor 1-21 Rocket 4.2 05:06:12 10° NNW 05:12:00 69° W 05:17:51 10° S
Lacrosse 5 rocket 2.2 05:10:54 33° NW 05:12:12 41° NNW 05:16:29 10° NE
CZ-4B R/B 3.3 05:06:52 10° NNE 05:12:32 81° ESE 05:18:02 10° SSW
H-2A R/B 4.0 05:11:08 10° NNE 05:14:56 45° E 05:18:42 10° S
Cosmos 1758 3.7 05:13:20 10° SW 05:17:08 40° WNW 05:20:56 10° N
Cosmos 2218 Rocket 4.3 05:12:17 10° N 05:18:44 75° E 05:25:06 10° SSE
Cosmos 1602 Rocket 4.5 05:21:44 27° W 05:21:44 27° W 05:24:58 10° SW
NOAA 6 3.9 05:18:33 10° NNE 05:23:46 77° WNW 05:28:56 10° SSW
Cosmos 1953 2.3 05:21:22 10° SSW 05:25:21 57° WNW 05:29:23 10° N
Timation 1 Rocket 4.5 05:19:29 11° NNW 05:25:21 79° ENE 05:31:22 10° SE
NOSS 3-2 (C) 4.0 05:19:37 16° NW 05:25:49 85° SW 05:34:10 10° SE
Cosmos 44 Rocket 3.8 05:24:26 26° WNW 05:26:20 37° WSW 05:30:41 10° S
Cosmos 1980 Rocket 2.3 05:20:56 10° SSW 05:26:37 83° ESE 05:32:20 10° NNE
Cosmos 2154 Rocket 4.4 05:21:08 10° NNW 05:26:48 38° W 05:32:26 10° SSW
Cosmos 1703 3.4 05:22:50 10° N 05:26:50 77° E 05:30:47 10° SSE
Cosmos 1908 4.1 05:26:24 10° S 05:30:13 52° E 05:34:03 10° NNE
Cosmos 2228 3.0 05:25:59 10° S 05:30:24 90° ESE 05:34:50 10° N
FENGYUN 3A 3.9 05:25:20 10° N 05:30:30 47° WNW 05:35:38 10° SW
Okean O Rocket 1.6 05:26:04 10° N 05:30:30 63° WNW 05:34:54 10° SSW
NOSS 2-2 (C) 3.2 05:28:15 10° SW 05:31:53 88° WNW 05:36:09 10° NE
Cosmos 1953 Rocket 3.5 05:27:54 10° NNW 05:32:23 74° W 05:36:47 10° S
SMAP 3.5 05:30:57 10° NNE 05:35:37 66° ESE 05:40:14 10° S
Cosmos 1697 Rocket 2.8 05:30:37 10° SW 05:36:05 53° NW 05:41:37 10° NNE
Envisat 4.3 05:32:06 10° NNE 05:36:57 43° E 05:41:47 10° S
Cosmos 1758 Rocket 4.0 05:33:47 10° NNW 05:37:52 39° W 05:41:56 10° SSW
Cosmos 1680 Rocket 4.5 05:33:42 10° S 05:38:50 53° ESE 05:44:01 10° NNE
Cosmos 1371 Rocket 4.5 05:34:08 10° NNW 05:39:23 63° ENE 05:44:38 10° SE
Cosmos 2227 4.2 05:33:47 10° NNW 05:39:26 74° WSW 05:45:02 10° SSE
NOSS 2-2 (E) 3.3 05:39:36 10° SW 05:43:16 62° NW 05:47:38 10° NE
ATLAS 3B R/B 2.8 05:38:09 12° NW 05:44:32 77° NE 05:51:26 10° SE
CZ-2C R/B 4.3 05:42:15 10° ESE 05:46:48 31° ENE 05:51:28 10° N
Meteor 2-10 4.1 05:43:00 10° SSW 05:48:35 74° WNW 05:54:01 10° N
Cosmos 1726 2.2 05:45:52 10° SSW 05:49:28 53° WNW 05:53:04 10° N
NOSS 3-2 (A) 4.3 05:43:21 13° NW 05:49:50 51° WSW 05:57:48 10° SSE
STARLINK-26 4.0 05:46:43 10° SW 05:50:09 51° SSE 05:53:35 10° ENE
Cosmos 1959 Rocket 4.4 05:45:50 10° NNW 05:51:54 68° W 05:57:57 10° S
CZ-2C R/B 4.4 05:50:53 10° NW 05:51:00 10° NW 05:51:00 10° NW
NOSS 8 (H) 4.4 05:49:46 10° WSW 05:52:46 47° NW 05:55:53 10° NE
Genesis I 3.5 05:49:34 12° NW 05:53:09 62° NE 05:56:57 10° SE
STARLINK-60 3.4 05:54:11 17° WNW 05:56:37 57° NNE 05:59:57 10° E
FALCON 9 DEB 3.6 05:54:43 17° WNW 05:57:16 52° N 06:00:43 10° E
Helios 1A Rocket 3.3 05:53:32 10° N 05:57:25 41° WNW 06:01:18 10° SW
Cosmos 2278 Rocket 4.4 05:55:08 10° N 05:58:27 15° NNE 06:01:46 10° ENE
Cosmos 2366 rocket 4.1 05:53:03 10° NNW 05:59:18 63° W 06:05:33 10° S
Cosmos 1470 4.3 05:57:36 10° WSW 06:00:04 16° WNW 06:02:34 10° NNW
Cosmos 2058 Rocket 3.0 05:55:54 10° SSW 06:00:19 78° W 06:04:44 10° N
CORIOLIS 4.2 06:01:10 10° NNE 06:06:33 89° WNW 06:11:55 10° SSW
STARLINK-29 3.6 06:03:50 13° WNW 06:06:48 52° N 06:10:15 10° E
STARLINK-52 3.6 06:03:58 13° WNW 06:06:54 51° N 06:10:20 10° E
Cosmos 2344 3.8 05:59:45 10° WSW 06:07:07 56° NW 06:15:45 10° NE
BREEZE M DEB (TANK) 3.7 06:05:14 10° WSW 06:08:07 62° SSE 06:15:38 10° ENE
Cosmos 1328 4.4 06:05:17 10° NNW 06:08:58 35° W 06:12:37 10° SSW
Cosmos 1624 Rocket 4.0 06:04:30 10° NNW 06:09:47 88° WSW 06:14:59 10° SSE
ALOS 3.6 06:07:43 10° NNW 06:10:57 19° WNW 06:14:11 10° WSW
CENTAUR R/B 3.3 06:04:03 10° NW 06:11:56 65° SW 06:20:31 10° SSE
Cosmos 2322 Rocket 3.1 06:07:54 10° S 06:13:25 55° ESE 06:18:59 10° NE
Cosmos 158 Rocket 4.3 06:10:43 10° S 06:15:32 66° ESE 06:20:26 10° NNE
ATLAS 2AS CENTAUR R/B 3.2 06:09:16 10° SW 06:17:18 85° SE 06:25:17 10° NE
NOAA 12 4.1 06:12:47 10° NNE 06:18:05 86° WNW 06:23:24 10° SSW
Elektron 3 4.2 06:15:37 10° SW 06:20:39 69° NW 06:23:41 10° NE
COSMOS 2455 2.9 06:16:05 10° SW 06:22:02 61° NW 06:28:02 10° NNE
IRS-1C Rocket 4.1 06:16:55 10° N 06:22:08 63° WNW 06:27:20 10° SSW
ADEOS Rocket 3.5 06:18:06 10° SSW 06:22:57 31° W 06:27:54 10° NNW
AQUARIUS 4.4 06:19:06 10° N 06:23:28 49° WNW 06:27:47 10° SW
Cosmos 2056 Rocket 3.6 06:18:22 10° NNW 06:23:47 72° WSW 06:29:11 10° SSE
Cosmos 2181 Rocket 4.4 06:20:35 10° SW 06:26:23 40° WNW 06:32:18 10° N
Cosmos 2263 Rocket 2.7 06:22:25 10° NW 06:27:41 42° WSW 06:32:58 10° S
STARLINK-71 4.5 06:24:38 10° SW 06:28:33 52° SSE 06:32:28 10° ENE
Cosmos 1726 Rocket 4.4 06:25:53 10° SW 06:29:45 29° WNW 06:33:38 10° N
Cosmos 923 Rocket 4.2 06:24:55 10° SW 06:30:03 52° WNW 06:35:15 10° NNE
